TimeEDT,TemperatureF,Dew PointF,Humidity,Sea Level PressureIn,VisibilityMPH,Wind Direction,Wind SpeedMPH,Gust SpeedMPH,PrecipitationIn,Events,Conditions,WindDirDegrees,DateUTC
12:53 AM,75.0,70.0,84,29.94,10.0,Calm,Calm,-,N/A,,Clear,0,2013-10-18 04:53:00
1:53 AM,73.9,70.0,87,29.93,10.0,Calm,Calm,-,N/A,,Clear,0,2013-10-18 05:53:00
2:53 AM,73.0,70.0,90,29.92,10.0,Calm,Calm,-,N/A,,Clear,0,2013-10-18 06:53:00
3:53 AM,70.0,69.1,97,29.92,10.0,Calm,Calm,-,N/A,,Clear,0,2013-10-18 07:53:00
4:53 AM,70.0,70.0,100,29.91,10.0,Calm,Calm,-,N/A,,Clear,0,2013-10-18 08:53:00
5:53 AM,70.0,69.1,97,29.92,10.0,Calm,Calm,-,N/A,,Clear,0,2013-10-18 09:53:00
6:53 AM,70.0,70.0,100,29.94,10.0,Calm,Calm,-,N/A,,Clear,0,2013-10-18 10:53:00
7:53 AM,72.0,71.1,97,29.95,10.0,Calm,Calm,-,N/A,,Clear,0,2013-10-18 11:53:00
8:53 AM,79.0,73.0,82,29.97,10.0,Calm,Calm,-,N/A,,Clear,0,2013-10-18 12:53:00
9:53 AM,84.0,71.1,65,29.99,10.0,Calm,Calm,-,N/A,,Partly Cloudy,0,2013-10-18 13:53:00
10:53 AM,84.9,70.0,61,29.99,10.0,ESE,5.8,-,N/A,,Clear,120,2013-10-18 14:53:00
11:53 AM,87.1,71.1,59,29.99,10.0,ESE,11.5,-,N/A,,Partly Cloudy,120,2013-10-18 15:53:00
12:53 PM,88.0,70.0,55,29.96,10.0,East,12.7,-,N/A,,Partly Cloudy,90,2013-10-18 16:53:00
1:53 PM,88.0,69.1,53,29.94,10.0,ESE,10.4,-,N/A,,Clear,120,2013-10-18 17:53:00
2:53 PM,88.0,70.0,55,29.91,10.0,ESE,12.7,-,N/A,,Clear,120,2013-10-18 18:53:00
3:53 PM,87.1,69.1,55,29.91,10.0,ESE,10.4,-,N/A,,Clear,120,2013-10-18 19:53:00
4:53 PM,84.9,72.0,65,29.92,10.0,ESE,11.5,-,N/A,,Partly Cloudy,110,2013-10-18 20:53:00
5:53 PM,82.9,71.1,67,29.92,10.0,ESE,8.1,-,N/A,,Clear,110,2013-10-18 21:53:00
6:53 PM,81.0,71.1,72,29.93,10.0,ESE,8.1,-,N/A,,Clear,110,2013-10-18 22:53:00
7:53 PM,78.1,71.1,79,29.94,10.0,East,6.9,-,N/A,,Clear,90,2013-10-18 23:53:00
8:53 PM,77.0,72.0,84,29.95,10.0,East,6.9,-,N/A,,Clear,90,2013-10-19 00:53:00
9:53 PM,75.9,72.0,87,29.96,10.0,East,6.9,-,N/A,,Clear,90,2013-10-19 01:53:00
10:53 PM,75.9,72.0,87,29.98,10.0,East,5.8,-,N/A,,Clear,90,2013-10-19 02:53:00
11:53 PM,75.9,72.0,87,29.97,10.0,East,4.6,-,N/A,,Partly Cloudy,80,2013-10-19 03:53:00